Terminal Aerodrome Forecast
Issued by NWS Memphis, TN

Home | Current Version | Previous Version | Text Only | Print | Product List | Glossary On
Versions: 1 2 3 4 5 6 7 8 9 10 11 12 13
000
FTUS44 KMEG 222300
TAFJBR
TAF
KJBR 222324Z 2300/2324 20008KT P6SM SCT250
     FM230100 23005KT P6SM SCT250
     FM231600 23009KT P6SM FEW050 SCT250=

USA.gov is the U.S. government's official web portal to all federal, state and local government web resources and services.